Time,TemperatureF,DewpointF,PressureIn,WindDirection,WindDirectionDegrees,WindSpeedMPH,WindSpeedGustMPH,Humidity,HourlyPrecipIn,Conditions,Clouds,dailyrainin,SolarRadiationWatts/m^2,SoftwareType,DateUTC
2015-06-02 00:01:00,54.5,47.8,30.14,North,350,2.3,2.3,78,0.00,RA,,0.00,0.0,WeatherDisplay:10.37,2015-06-02 04:01:00,
2015-06-02 00:06:00,54.5,47.8,30.14,North,355,4.6,4.6,78,0.00,RA,,0.00,0.0,WeatherDisplay:10.37,2015-06-02 04:06:00,
2015-06-02 00:11:00,54.4,47.7,30.14,NNE,15,3.5,3.5,78,0.00,OVC,,0.00,0.0,WeatherDisplay:10.37,2015-06-02 04:11:00,
2015-06-02 00:16:00,54.3,47.6,30.15,NNW,346,3.5,3.5,78,0.00,OVC,,0.00,0.0,WeatherDisplay:10.37,2015-06-02 04:16:00,
2015-06-02 00:21:00,54.3,47.6,30.15,NNE,23,3.5,3.5,78,0.00,OVC,,0.00,0.0,WeatherDisplay:10.37,2015-06-02 04:21:00,
2015-06-02 00:26:00,54.3,47.6,30.15,NNE,22,4.6,4.6,78,0.00,OVC,,0.00,0.0,WeatherDisplay:10.37,2015-06-02 04:26:00,
2015-06-02 00:31:00,54.3,47.6,30.15,North,355,3.0,3.0,78,0.00,OVC,,0.00,0.0,WeatherDisplay:10.37,2015-06-02 04:31:00,
2015-06-02 00:36:00,54.2,47.5,30.15,NNE,32,0.0,1.7,78,0.00,OVC,,0.00,0.0,WeatherDisplay:10.37,2015-06-02 04:36:00,
2015-06-02 00:41:00,54.2,47.5,30.15,North,349,3.5,3.5,78,0.00,OVC,,0.00,0.0,WeatherDisplay:10.37,2015-06-02 04:41:00,
2015-06-02 00:46:00,54.1,47.4,30.15,NNW,347,2.3,2.3,78,0.00,OVC,,0.00,0.0,WeatherDisplay:10.37,2015-06-02 04:46:00,
2015-06-02 00:51:00,54.1,47.4,30.15,NNE,15,3.5,3.5,78,0.00,OVC,,0.00,0.0,WeatherDisplay:10.37,2015-06-02 04:51:00,
2015-06-02 00:56:00,54.1,47.4,30.14,NE,47,5.8,5.8,78,0.00,OVC,,0.00,0.0,WeatherDisplay:10.37,2015-06-02 04:56:00,
2015-06-02 01:01:00,54.0,47.3,30.14,North,350,1.2,1.2,78,0.00,OVC,,0.00,0.0,WeatherDisplay:10.37,2015-06-02 05:01:00,
2015-06-02 01:06:00,53.9,47.2,30.13,NNE,17,2.3,2.3,78,0.00,OVC,,0.00,0.0,WeatherDisplay:10.37,2015-06-02 05:06:00,
2015-06-02 01:11:00,54.0,47.3,30.13,North,355,2.3,2.3,78,0.00,OVC,,0.00,0.0,WeatherDisplay:10.37,2015-06-02 05:11:00,
2015-06-02 01:16:00,54.0,47.3,30.13,North,355,1.0,1.0,78,0.00,OVC,,0.00,0.0,WeatherDisplay:10.37,2015-06-02 05:16:00,
2015-06-02 01:21:00,54.0,47.3,30.13,North,350,3.5,3.5,78,0.00,OVC,,0.00,0.0,WeatherDisplay:10.37,2015-06-02 05:21:00,
2015-06-02 01:26:00,53.9,47.2,30.13,North,349,0.0,0.0,78,0.00,OVC,,0.00,0.0,WeatherDisplay:10.37,2015-06-02 05:26:00,
2015-06-02 01:31:00,53.9,47.2,30.13,NNE,19,4.6,4.6,78,0.00,OVC,,0.00,0.0,WeatherDisplay:10.37,2015-06-02 05:31:00,
2015-06-02 01:36:00,53.9,47.2,30.13,NNE,14,2.3,2.3,78,0.00,OVC,,0.00,0.0,WeatherDisplay:10.37,2015-06-02 05:36:00,
2015-06-02 01:41:00,53.9,47.2,30.12,NNE,14,1.2,1.2,78,0.00,OVC,,0.00,0.0,WeatherDisplay:10.37,2015-06-02 05:41:00,
2015-06-02 01:46:00,53.9,47.2,30.12,NNE,14,1.2,1.2,78,0.00,OVC,,0.00,0.0,WeatherDisplay:10.37,2015-06-02 05:46:00,
2015-06-02 01:51:00,53.9,47.2,30.12,NNE,14,0.0,0.0,78,0.00,OVC,,0.00,0.0,WeatherDisplay:10.37,2015-06-02 05:51:00,
2015-06-02 01:56:00,53.9,47.2,30.12,NNE,14,2.3,2.3,78,0.00,OVC,,0.00,0.0,WeatherDisplay:10.37,2015-06-02 05:56:00,
2015-06-02 02:01:00,53.9,47.2,30.12,NNE,14,0.0,0.0,78,0.00,OVC,,0.00,0.0,WeatherDisplay:10.37,2015-06-02 06:01:00,
2015-06-02 02:06:00,53.9,47.2,30.12,NNE,14,0.0,0.0,78,0.00,OVC,,0.00,0.0,WeatherDisplay:10.37,2015-06-02 06:06:00,
2015-06-02 02:11:00,53.9,47.2,30.12,North,10,2.3,2.3,78,0.00,OVC,,0.00,0.0,WeatherDisplay:10.37,2015-06-02 06:11:00,
2015-06-02 02:16:00,53.9,47.2,30.12,North,10,2.3,2.3,78,0.00,OVC,,0.00,0.0,WeatherDisplay:10.37,2015-06-02 06:16:00,
2015-06-02 02:21:00,53.8,47.1,30.12,North,9,1.2,0.0,78,0.00,OVC,,0.00,0.0,WeatherDisplay:10.37,2015-06-02 06:21:00,
2015-06-02 02:26:00,53.7,47.0,30.11,North,5,3.5,0.0,78,0.00,OVC,,0.00,0.0,WeatherDisplay:10.37,2015-06-02 06:26:00,
2015-06-02 02:31:00,53.7,47.0,30.12,NNW,340,0.0,0.0,78,0.00,OVC,,0.00,0.0,WeatherDisplay:10.37,2015-06-02 06:31:00,
2015-06-02 02:36:00,53.7,47.0,30.11,NNW,340,2.3,2.3,78,0.00,OVC,,0.00,0.0,WeatherDisplay:10.37,2015-06-02 06:36:00,
2015-06-02 02:41:00,53.6,46.9,30.11,North,355,1.2,1.2,78,0.00,OVC,,0.00,0.0,WeatherDisplay:10.37,2015-06-02 06:41:00,
2015-06-02 02:46:00,53.6,46.9,30.11,North,355,1.0,1.0,78,0.00,OVC,,0.00,0.0,WeatherDisplay:10.37,2015-06-02 06:46:00,
2015-06-02 02:51:00,53.7,47.0,30.11,North,355,2.3,2.3,78,0.00,OVC,,0.00,0.0,WeatherDisplay:10.37,2015-06-02 06:51:00,
2015-06-02 02:56:00,53.6,46.9,30.11,North,355,0.0,0.0,78,0.00,OVC,,0.00,0.0,WeatherDisplay:10.37,2015-06-02 06:56:00,
2015-06-02 03:01:00,53.7,47.0,30.11,North,355,0.0,0.0,78,0.00,OVC,,0.00,0.0,WeatherDisplay:10.37,2015-06-02 07:01:00,
2015-06-02 03:06:00,53.7,47.0,30.11,North,355,2.3,0.0,78,0.00,OVC,,0.00,0.0,WeatherDisplay:10.37,2015-06-02 07:06:00,
2015-06-02 03:11:00,53.6,46.9,30.11,North,355,1.2,1.2,78,0.00,OVC,,0.00,0.0,WeatherDisplay:10.37,2015-06-02 07:11:00,
2015-06-02 03:16:00,53.7,47.0,30.11,North,355,1.2,1.2,78,0.00,OVC,,0.00,0.0,WeatherDisplay:10.37,2015-06-02 07:16:00,
2015-06-02 03:21:00,53.7,47.0,30.11,North,349,1.2,1.2,78,0.00,OVC,,0.00,0.0,WeatherDisplay:10.37,2015-06-02 07:21:00,
2015-06-02 03:26:00,53.6,46.9,30.11,NNW,348,3.5,3.5,78,0.00,OVC,,0.00,0.0,WeatherDisplay:10.37,2015-06-02 07:26:00,
2015-06-02 03:31:00,53.5,46.8,30.11,NNW,348,0.0,0.0,78,0.00,OVC,,0.00,0.0,WeatherDisplay:10.37,2015-06-02 07:31:00,
2015-06-02 03:36:00,53.5,46.8,30.11,NNE,20,1.2,0.0,78,0.00,OVC,,0.00,0.0,WeatherDisplay:10.37,2015-06-02 07:36:00,
2015-06-02 03:41:00,53.5,46.8,30.11,NNE,15,2.3,0.0,78,0.00,OVC,,0.00,0.0,WeatherDisplay:10.37,2015-06-02 07:41:00,
2015-06-02 03:46:00,53.5,46.8,30.11,NNW,331,4.0,4.0,78,0.00,OVC,,0.00,0.0,WeatherDisplay:10.37,2015-06-02 07:46:00,
2015-06-02 03:51:00,53.3,46.6,30.11,North,9,2.3,2.3,78,0.00,OVC,,0.00,0.0,WeatherDisplay:10.37,2015-06-02 07:51:00,
2015-06-02 04:01:00,53.3,46.6,30.10,North,360,2.3,2.3,78,0.00,OVC,,0.00,0.0,WeatherDisplay:10.37,2015-06-02 08:01:00,
2015-06-02 04:06:00,53.2,46.5,30.10,North,5,3.5,3.5,78,0.00,OVC,,0.00,0.0,WeatherDisplay:10.37,2015-06-02 08:06:00,
2015-06-02 04:11:00,53.2,46.5,30.10,NNE,29,3.5,3.5,78,0.00,OVC,,0.00,0.0,WeatherDisplay:10.37,2015-06-02 08:11:00,
2015-06-02 04:16:00,53.2,46.5,30.10,North,9,1.0,1.0,78,0.00,OVC,,0.00,0.0,WeatherDisplay:10.37,2015-06-02 08:16:00,
2015-06-02 04:21:00,53.1,46.4,30.10,North,9,0.0,0.0,78,0.00,OVC,,0.00,0.0,WeatherDisplay:10.37,2015-06-02 08:21:00,
2015-06-02 04:26:00,53.1,46.4,30.10,North,9,3.5,3.5,78,0.00,OVC,,0.00,0.0,WeatherDisplay:10.37,2015-06-02 08:26:00,
2015-06-02 04:31:00,53.2,46.5,30.10,North,9,1.2,1.2,78,0.00,OVC,,0.00,0.0,WeatherDisplay:10.37,2015-06-02 08:31:00,
2015-06-02 04:36:00,53.2,46.5,30.10,North,9,3.0,3.0,78,0.00,OVC,,0.00,0.0,WeatherDisplay:10.37,2015-06-02 08:36:00,
2015-06-02 04:41:00,53.2,46.5,30.10,North,9,1.2,0.0,78,0.00,OVC,,0.00,0.0,WeatherDisplay:10.37,2015-06-02 08:41:00,
2015-06-02 04:46:00,53.2,46.5,30.10,North,9,0.0,0.0,78,0.00,OVC,,0.00,0.0,WeatherDisplay:10.37,2015-06-02 08:46:00,
2015-06-02 04:51:00,53.2,46.5,30.10,North,9,3.5,3.5,78,0.00,OVC,,0.00,0.0,WeatherDisplay:10.37,2015-06-02 08:51:00,
2015-06-02 04:56:00,53.2,46.5,30.10,North,349,2.3,2.3,78,0.00,OVC,,0.00,0.0,WeatherDisplay:10.37,2015-06-02 08:56:00,
2015-06-02 05:01:00,53.1,46.4,30.10,North,349,2.0,2.0,78,0.00,OVC,,0.00,0.0,WeatherDisplay:10.37,2015-06-02 09:01:00,
2015-06-02 05:06:00,53.1,46.4,30.10,North,350,2.3,2.3,78,0.00,OVC,,0.00,0.0,WeatherDisplay:10.37,2015-06-02 09:06:00,
2015-06-02 05:12:00,53.1,46.4,30.10,North,349,0.0,0.0,78,0.00,OVC,,0.00,0.0,WeatherDisplay:10.37,2015-06-02 09:12:00,
2015-06-02 05:22:00,53.0,46.3,30.10,NNW,342,0.0,0.0,78,0.00,OVC,,0.00,0.0,WeatherDisplay:10.37,2015-06-02 09:22:00,
2015-06-02 05:27:00,53.0,46.3,30.10,NNW,342,2.3,2.3,78,0.00,OVC,,0.00,0.0,WeatherDisplay:10.37,2015-06-02 09:27:00,
2015-06-02 05:32:00,53.0,46.3,30.10,NNW,342,3.5,3.5,78,0.00,OVC,,0.00,0.0,WeatherDisplay:10.37,2015-06-02 09:32:00,
2015-06-02 05:37:00,52.9,46.2,30.10,NNW,342,2.3,2.3,78,0.00,OVC,,0.00,0.0,WeatherDisplay:10.37,2015-06-02 09:37:00,
2015-06-02 05:42:00,52.9,46.2,30.10,NNW,342,1.2,1.2,78,0.00,OVC,,0.00,0.0,WeatherDisplay:10.37,2015-06-02 09:42:00,
2015-06-02 05:47:00,52.8,46.1,30.10,NNW,347,2.3,2.3,78,0.00,OVC,,0.00,0.0,WeatherDisplay:10.37,2015-06-02 09:47:00,
2015-06-02 05:52:00,52.8,46.1,30.10,NNW,346,1.2,1.2,78,0.00,OVC,,0.00,0.0,WeatherDisplay:10.37,2015-06-02 09:52:00,
2015-06-02 05:57:00,52.8,46.1,30.10,North,350,2.3,2.3,78,0.00,OVC,,0.00,0.0,WeatherDisplay:10.37,2015-06-02 09:57:00,
2015-06-02 06:02:00,52.8,46.1,30.10,NNW,345,1.2,0.0,78,0.00,OVC,,0.00,0.0,WeatherDisplay:10.37,2015-06-02 10:02:00,
2015-06-02 06:07:00,52.7,46.0,30.10,NNW,345,2.3,2.3,78,0.00,OVC,,0.00,0.0,WeatherDisplay:10.37,2015-06-02 10:07:00,
2015-06-02 06:12:00,52.6,45.9,30.10,NNW,344,1.2,0.0,78,0.00,OVC,,0.00,0.0,WeatherDisplay:10.37,2015-06-02 10:12:00,
2015-06-02 06:17:00,52.6,45.9,30.10,NNW,344,2.3,2.3,78,0.00,OVC,,0.00,0.0,WeatherDisplay:10.37,2015-06-02 10:17:00,
2015-06-02 06:22:00,52.6,45.9,30.10,NNW,346,1.2,1.2,78,0.00,OVC,,0.00,0.0,WeatherDisplay:10.37,2015-06-02 10:22:00,
2015-06-02 06:27:00,52.6,45.9,30.11,NNW,346,2.3,2.3,78,0.00,OVC,,0.00,0.0,WeatherDisplay:10.37,2015-06-02 10:27:00,
2015-06-02 06:32:00,52.6,45.9,30.10,North,351,4.6,4.6,78,0.00,OVC,,0.00,0.0,WeatherDisplay:10.37,2015-06-02 10:32:00,
2015-06-02 06:37:00,52.5,45.8,30.11,North,351,2.3,0.0,78,0.00,OVC,,0.00,0.0,WeatherDisplay:10.37,2015-06-02 10:37:00,
2015-06-02 06:42:00,52.5,45.8,30.11,North,351,1.2,1.2,78,0.00,OVC,,0.00,0.0,WeatherDisplay:10.37,2015-06-02 10:42:00,
2015-06-02 06:47:00,52.5,45.8,30.11,North,351,0.0,0.0,78,0.00,OVC,,0.00,0.0,WeatherDisplay:10.37,2015-06-02 10:47:00,
2015-06-02 06:52:00,52.6,45.9,30.12,North,350,0.0,0.0,78,0.00,OVC,,0.00,0.0,WeatherDisplay:10.37,2015-06-02 10:52:00,
2015-06-02 06:57:00,52.6,45.9,30.12,North,351,0.0,0.0,78,0.00,OVC,,0.00,0.0,WeatherDisplay:10.37,2015-06-02 10:57:00,
2015-06-02 07:02:00,52.6,45.9,30.12,North,351,1.2,1.2,78,0.00,OVC,,0.00,5.0,WeatherDisplay:10.37,2015-06-02 11:02:00,
2015-06-02 07:07:00,52.7,46.0,30.12,North,351,2.3,2.3,78,0.00,OVC,,0.00,16.0,WeatherDisplay:10.37,2015-06-02 11:07:00,
2015-06-02 07:12:00,52.7,46.0,30.12,North,351,3.0,3.0,78,0.00,OVC,,0.00,21.0,WeatherDisplay:10.37,2015-06-02 11:12:00,
2015-06-02 07:17:00,52.6,45.9,30.12,North,350,0.0,0.0,78,0.00,OVC,,0.00,25.0,WeatherDisplay:10.37,2015-06-02 11:17:00,
2015-06-02 07:22:00,52.6,45.9,30.12,North,350,0.0,0.0,78,0.00,OVC,,0.00,23.0,WeatherDisplay:10.37,2015-06-02 11:22:00,
2015-06-02 07:27:00,52.6,45.9,30.12,North,350,2.3,2.3,78,0.00,OVC,,0.00,28.0,WeatherDisplay:10.37,2015-06-02 11:27:00,
2015-06-02 07:32:00,52.6,45.9,30.12,North,350,0.0,0.0,78,0.00,OVC,,0.00,33.0,WeatherDisplay:10.37,2015-06-02 11:32:00,
2015-06-02 07:37:00,52.7,45.7,30.12,North,350,0.0,0.0,77,0.00,OVC,,0.00,33.0,WeatherDisplay:10.37,2015-06-02 11:37:00,
2015-06-02 07:42:00,52.8,45.8,30.12,North,350,0.0,0.0,77,0.00,OVC,,0.00,37.0,WeatherDisplay:10.37,2015-06-02 11:42:00,
2015-06-02 07:47:00,52.8,46.1,30.12,North,349,4.0,4.0,78,0.00,OVC,,0.00,40.0,WeatherDisplay:10.37,2015-06-02 11:47:00,
2015-06-02 07:52:00,52.7,45.7,30.13,North,5,3.5,3.5,77,0.00,OVC,,0.00,47.0,WeatherDisplay:10.37,2015-06-02 11:52:00,
2015-06-02 07:57:00,52.7,46.0,30.13,North,9,1.2,1.2,78,0.00,OVC,,0.00,47.0,WeatherDisplay:10.37,2015-06-02 11:57:00,
2015-06-02 08:02:00,52.7,46.0,30.13,North,9,0.0,0.0,78,0.00,OVC,,0.00,49.0,WeatherDisplay:10.37,2015-06-02 12:02:00,
2015-06-02 08:07:00,52.7,45.7,30.13,North,9,0.0,0.0,77,0.00,OVC,,0.00,53.0,WeatherDisplay:10.37,2015-06-02 12:07:00,
2015-06-02 08:12:00,52.8,46.1,30.13,North,9,0.0,0.0,78,0.00,OVC,,0.00,53.0,WeatherDisplay:10.37,2015-06-02 12:12:00,
2015-06-02 08:17:00,52.9,46.2,30.13,North,9,2.0,2.0,78,0.00,OVC,,0.00,56.0,WeatherDisplay:10.37,2015-06-02 12:17:00,
2015-06-02 08:22:00,52.9,46.2,30.13,North,9,0.0,0.0,78,0.00,OVC,,0.00,62.0,WeatherDisplay:10.37,2015-06-02 12:22:00,
2015-06-02 08:27:00,53.0,46.3,30.13,North,9,1.2,1.2,78,0.00,OVC,,0.00,60.0,WeatherDisplay:10.37,2015-06-02 12:27:00,
2015-06-02 08:32:00,53.0,46.3,30.14,North,350,4.0,4.0,78,0.00,OVC,,0.00,58.0,WeatherDisplay:10.37,2015-06-02 12:32:00,
2015-06-02 08:37:00,52.9,46.2,30.14,North,9,2.3,2.3,78,0.00,OVC,,0.00,62.0,WeatherDisplay:10.37,2015-06-02 12:37:00,